User: anonymous   Login
Location: Bonn
(50.7330°N, 7.1000°E)
Time: 02:12:56
(UTC+02:00)
Language:

Iridium 84 - Orbit

View from above orbital plane
View from above orbital plane
View from above satellite
View from above satellite

Ground track
Ground track

The orbit data is extracted from the following two-line orbital elements,

1 25530U 98066D   17289.47227117 -.00000023  00000-0 -15440-4 0  9997
2 25530  86.3910 299.2474 0002203  86.8523 273.2925 14.34217493994381
Epoch (UTC): 16 October 2017 11:20:04
Eccentricity: 0.0002203
inclination: 86.3910°
perigee height: 776 km
apogee height: 779 km
right ascension of ascending node: 299.2474°
argument of perigee: 86.8523°
revolutions per day: 14.34217493
mean anomaly at epoch: 273.2925°
orbit number at epoch: 99438

The dashed part of the orbit path shows where the satellite is in the earth's shadow,  

DLR